Weather History for Crestview, FL

Change the Weather History Date:

Friday, January 18, 2013

  Actual Average Record
Temperature  
Mean Temperature 48 °F -  
Max Temperature 61 °F 58 °F 79 °F (1950)
Min Temperature 32 °F 34 °F 19 °F (2003)
Degree Days  
Heating Degree Days 17    
Moisture  
Dew Point 34 °F    
Average Humidity 70    
Maximum Humidity 96    
Minimum Humidity 34    
Precipitation  
Precipitation 0.00 in - - ()
Sea Level Pressure  
Sea Level Pressure 30.43 in    
Wind  
Wind Speed 6 mph (NNE)    
Max Wind Speed 13 mph    
Max Gust Speed 16 mph    
Visibility 10 miles    
Events      
Averages and records for this station are not official NWS values.
T = Trace of Precipitation, MM = Missing Value Source: NWS Daily Summary

Daily Weather History Graph

Daily Weather History Graph

Search for Another Location

Airport:

Trip Planner

Search our weather history database for the weather conditions in past years. The results will help you decide how hot, cold, wet, or windy it might be!

Date:

Astronomy

Jan. 18, 2013 Rise Set
Actual Time 6:43 AM CST 5:09 PM CST
Civil Twilight 6:17 AM CST 5:35 PM CST
Nautical Twilight 5:48 AM CST 6:05 PM CST
Astronomical Twilight 5:19 AM CST 6:34 PM CST
Moon 10:55 AM CST (1/18) No Moon Set
Length of Visible Light 11h 18m
Length of Day
10h 26m
Waxing Crescent, 47% of the Moon is Illuminated
Jan 18
Waxing Crescent
Jan 18
First Quarter
Jan 26
Full
Feb 3
Last Quarter
Feb 10
New

Hourly Weather History & Observations

Time (CST) Temp. Windchill Dew Point Humidity Pressure Visibility Wind Dir Wind Speed Gust Speed Precip Events Conditions
12:53 AM 41.0 °F 35.2 °F 34.0 °F 76% 30.31 in 10.0 mi North 9.2 mph - N/A   Clear
1:53 AM 41.0 °F 39.0 °F 34.0 °F 76% 30.34 in 10.0 mi Variable 3.5 mph - N/A   Clear
2:53 AM 39.0 °F 36.8 °F 33.1 °F 79% 30.36 in 10.0 mi North 3.5 mph - N/A   Clear
3:53 AM 37.9 °F 35.5 °F 33.1 °F 83% 30.38 in 10.0 mi NNW 3.5 mph - N/A   Clear
4:53 AM 36.0 °F 31.1 °F 33.1 °F 89% 30.40 in 10.0 mi NW 5.8 mph - N/A   Clear
5:53 AM 36.0 °F 32.1 °F 33.1 °F 89% 30.43 in 10.0 mi NNW 4.6 mph - N/A   Clear
6:53 AM 36.0 °F 30.3 °F 33.1 °F 89% 30.46 in 9.0 mi NNW 6.9 mph - N/A   Clear
7:53 AM 37.9 °F 32.1 °F 33.1 °F 83% 30.49 in 10.0 mi NNW 8.1 mph - N/A   Clear
8:53 AM 43.0 °F 38.8 °F 33.1 °F 68% 30.51 in 10.0 mi North 6.9 mph - N/A   Clear
9:53 AM 48.9 °F - 35.1 °F 59% 30.51 in 10.0 mi NNE 10.4 mph - N/A   Clear
10:53 AM 52.0 °F - 35.1 °F 53% 30.50 in 10.0 mi NNE 9.2 mph - N/A   Clear
11:53 AM 55.0 °F - 35.1 °F 47% 30.46 in 10.0 mi NNE 12.7 mph 16.1 mph N/A   Clear
12:53 PM 57.9 °F - 33.1 °F 39% 30.43 in 10.0 mi North 9.2 mph - N/A   Clear
1:53 PM 60.1 °F - 33.1 °F 36% 30.41 in 10.0 mi NE 9.2 mph - N/A   Clear
2:53 PM 61.0 °F - 32.0 °F 34% 30.41 in 10.0 mi NE 6.9 mph - N/A   Clear
3:53 PM 59.0 °F - 33.1 °F 38% 30.41 in 10.0 mi ENE 8.1 mph - N/A   Clear
4:53 PM 55.9 °F - 34.0 °F 44% 30.42 in 10.0 mi NE 3.5 mph - N/A   Clear
5:53 PM 48.0 °F - 36.0 °F 63% 30.42 in 10.0 mi NE 3.5 mph - N/A   Clear
6:53 PM 41.0 °F - 37.9 °F 89% 30.43 in 10.0 mi Calm Calm - N/A   Clear
7:53 PM 39.0 °F - 36.0 °F 89% 30.44 in 10.0 mi Calm Calm - N/A   Clear
8:53 PM 37.0 °F - 35.1 °F 93% 30.43 in 10.0 mi Calm Calm - N/A   Clear
9:53 PM 35.1 °F - 33.1 °F 92% 30.43 in 10.0 mi Calm Calm - N/A   Clear
10:53 PM 32.0 °F - 30.9 °F 96% 30.41 in 10.0 mi Calm Calm - N/A   Clear